[[{"header":{"parameterUnit":"m.s-1","parameterCategory":1,"la1":30.2992,"la2":30.254,"lo1":-89.0895,"lo2":-89.0443,"dy":0.0025,"dx":0.0025,"nx":19,"ny":19,"refTime":"2026-03-07T03:00:00:Z","depth":0,"parameterNumber":2,"parameterNumberName":"U-component_of_WINDS"},"data":[0,0,0,-3.4822,-3.4824,-3.4916,-3.4916,-3.5033,-3.5034,0,0,0,0,0,0,0,0,0,0,0,-3.4794,-3.4795,-3.4822,-3.4824,-3.4916,-3.4916,-3.5033,-3.5034,0,0,0,0,0,0,0,0,0,0,0,-3.4793,-3.4794,-3.4795,-3.4825,-3.4916,-3.4916,-3.5032,-3.4963,0,0,0,0,0,0,0,0,0,0,-3.4874,-3.4847,-3.4794,-3.4795,-3.4825,-3.4916,-3.4917,-3.496,-3.4968,-3.4991,0,-3.501,0,-3.5024,-3.5041,-3.5042,0,0,0,-3.4825,-3.4841,-3.4867,-3.4795,-3.4826,-3.4916,-3.4875,-3.4964,-3.4973,-3.5001,-3.5012,-3.5016,-3.5026,-3.5042,-3.5043,-3.5171,-3.5172,0,0,-3.482,-3.481,-3.4861,-3.4872,-3.4858,-3.4872,-3.4878,-3.497,-3.4981,-3.5012,-3.5019,-3.5028,-3.5043,-3.5044,-3.5171,-3.5172,0,0,0,-3.4805,-3.4806,-3.483,-3.4867,-3.4884,-3.4875,-3.4881,-3.4977,-3.4986,-3.502,-3.5029,-3.5044,-3.5045,-3.517,-3.5171,-3.5188,0,0,0,-3.4802,-3.4797,-3.4827,-3.4822,-3.4882,-3.4932,-3.4887,-3.4979,-3.499,-3.5029,-3.5044,-3.5046,-3.517,-3.5171,-3.5186,-3.5196,0,0,0,-3.4788,-3.4796,-3.4809,-3.4821,-3.4861,-3.493,-3.4944,-3.4982,-3.4996,-3.5042,-3.5046,-3.5169,-3.5171,-3.5184,-3.5194,-3.5226,0,0,0,-3.477,-3.4822,-3.4809,-3.487,-3.486,-3.4941,-3.4944,-3.5005,-3.5047,-3.5044,-3.517,-3.5171,-3.5184,-3.5192,-3.5224,-3.525,-3.526,0,0,-3.483,-3.4829,-3.4866,-3.4857,-3.4937,-3.4927,-3.5011,-3.5059,-3.5073,-3.5138,-3.5141,-3.5187,-3.5194,-3.5226,-3.5325,-3.5333,0,0,0,-3.4881,-3.4907,-3.4931,-3.4971,-3.501,-3.5043,-3.508,-3.5099,-3.5154,-3.5105,-3.5209,-3.5213,-3.5233,-3.5245,-3.5252,-3.5268,-3.5177,-3.5177,-3.5177,-3.4948,-3.4964,-3.5027,-3.5054,-3.5093,-3.5131,-3.5164,-3.5195,-3.52,-3.5225,-3.5243,-3.5301,-3.5315,-3.5321,-3.5338,-3.526,-3.526,-3.526,-3.526,-3.5035,-3.5073,-3.5081,-3.5143,-3.516,-3.5213,-3.5253,-3.5255,-3.5307,-3.5288,-3.5306,-3.5282,-3.5329,-3.5345,-3.5261,-3.5261,-3.5261,-3.5261,-3.5261,-3.5078,-3.5099,-3.5122,-3.5181,-3.5226,-3.5253,-3.5303,-3.5318,-3.5332,-3.535,-3.537,-3.537,-3.5369,-3.5359,-3.5359,-3.5359,-3.536,-3.536,-3.536,-3.5112,-3.5137,-3.5177,-3.5224,-3.5252,-3.5291,-3.5332,-3.5361,-3.5395,-3.5402,-3.5402,-3.5404,-3.5332,-3.5311,-3.5363,-3.5362,-3.5362,-3.5362,-3.5361,-3.5189,-3.5175,-3.5236,-3.5264,-3.5321,-3.5365,-3.5384,-3.5441,-3.5466,-3.549,-3.549,-3.5435,-3.5435,-3.5429,-3.5413,-3.5487,-3.5487,-3.5487,-3.5487,-3.5224,-3.5226,-3.5293,-3.5337,-3.5382,-3.5406,-3.5476,-3.5509,-3.5542,-3.5559,-3.5551,-3.5532,-3.5526,-3.5529,-3.5522,-3.5506,-3.5603,-3.5603,-3.5603,-3.5271,-3.5279,-3.5334,-3.5366,-3.5413,-3.5452,-3.5518,-3.5569,-3.5603,-3.5608,-3.5572,-3.5568,-3.5536,-3.5525,-3.5525,-3.5513,-3.5485,0,0]},{"header":{"parameterUnit":"m.s-1","parameterCategory":1,"la1":30.2992,"la2":30.254,"lo1":-89.0895,"lo2":-89.0443,"dy":0.0025,"dx":0.0025,"nx":19,"ny":19,"refTime":"2026-03-07T03:00:00:Z","depth":0,"parameterNumber":3,"parameterNumberName":"V-component_of_WINDS"},"data":[0,0,0,2.1983,2.1984,2.2077,2.2077,2.2177,2.2177,0,0,0,0,0,0,0,0,0,0,0,2.1943,2.1943,2.1983,2.1985,2.2077,2.2077,2.2176,2.2177,0,0,0,0,0,0,0,0,0,0,0,2.1943,2.1943,2.1944,2.1985,2.2076,2.2077,2.2176,2.2114,0,0,0,0,0,0,0,0,0,0,2.2027,2.1978,2.1943,2.1944,2.1985,2.2076,2.2077,2.2111,2.2117,2.2127,0,2.213,0,2.2155,2.2183,2.2183,0,0,0,2.1994,2.1972,2.2009,2.1944,2.1986,2.2076,2.2038,2.2115,2.2122,2.2135,2.2132,2.2136,2.2157,2.2183,2.2184,2.2205,2.2205,0,0,2.1989,2.1953,2.2003,2.2013,2.1996,2.2035,2.204,2.212,2.2114,2.2132,2.2139,2.2159,2.2184,2.2184,2.2206,2.2205,0,0,0,2.1968,2.1949,2.1984,2.2008,2.2026,2.2037,2.2044,2.211,2.2125,2.214,2.216,2.2184,2.2185,2.2206,2.2206,2.2155,0,0,0,2.1965,2.1937,2.1981,2.196,2.2024,2.2069,2.2032,2.2119,2.2129,2.2159,2.2184,2.2186,2.2206,2.2206,2.2157,2.2137,0,0,0,2.1941,2.1934,2.1943,2.1958,2.1996,2.2069,2.2088,2.2122,2.2141,2.2183,2.2186,2.2207,2.2206,2.2159,2.214,2.2134,0,0,0,2.1905,2.1895,2.1942,2.1938,2.1995,2.2036,2.2088,2.212,2.215,2.2185,2.2206,2.2206,2.216,2.2142,2.2136,2.2122,2.2113,0,0,2.1872,2.1889,2.1891,2.1935,2.1959,2.2025,2.2043,2.2104,2.214,2.2182,2.2183,2.2156,2.214,2.2134,2.2072,2.2064,0,0,0,2.1868,2.1869,2.1883,2.191,2.1958,2.1998,2.206,2.2084,2.2121,2.2154,2.2153,2.2145,2.2142,2.2138,2.2131,2.2133,2.2202,2.2202,2.2202,2.1769,2.1818,2.1825,2.1886,2.1912,2.1979,2.2005,2.2049,2.2089,2.2088,2.21,2.2057,2.205,2.2046,2.2046,2.2097,2.2097,2.2097,2.2096,2.1726,2.1736,2.1793,2.1819,2.1872,2.1896,2.1961,2.199,2.202,2.2051,2.2051,2.2081,2.2036,2.2039,2.2093,2.2094,2.2094,2.2094,2.2095,2.1667,2.1681,2.171,2.1758,2.1789,2.1852,2.188,2.1927,2.1971,2.1972,2.1992,2.1993,2.2001,2.1978,2.1978,2.1978,2.1978,2.1978,2.1978,2.1594,2.163,2.1647,2.1699,2.1725,2.1765,2.1835,2.1862,2.1905,2.1937,2.1937,2.1979,2.2022,2.2032,2.1975,2.1976,2.1976,2.1976,2.1976,2.1534,2.1556,2.1582,2.1609,2.1676,2.1706,2.1767,2.1819,2.1848,2.1861,2.1905,2.1928,2.1949,2.1954,2.1963,2.1893,2.1893,2.1892,2.1892,2.1485,2.1501,2.1541,2.158,2.1624,2.1683,2.1714,2.177,2.1831,2.1853,2.187,2.1886,2.1889,2.1909,2.1915,2.1924,2.1845,2.1845,2.1845,2.1452,2.1475,2.1491,2.1551,2.1609,2.1658,2.169,2.1734,2.1808,2.1845,2.1872,2.1874,2.19,2.1905,2.1941,2.195,2.1968,0,0]}]]